Total_Precipitation_Accumulation
0.76 0.77 0.82 0.87 0.89 0.88 0.89 0.93 1.02 1.03 0.90 0.74 0.67 0.69 0.73 0.74 0.82 0.70 0.62 0.55 0.46 0.41 0.40 0.41 0.41 0.41 0.44 0.46 0.45 0.44 0.40 0.40 0.45 0.54 0.67 0.81 0.91 1.00
0.63 0.63 0.64 0.66 0.76 0.84 0.92 0.94 0.97 1.03 1.03 0.85 0.72 0.71 0.74 0.73 0.83 0.71 0.66 0.67 0.54 0.44 0.41 0.51 0.57 0.54 0.54 0.51 0.49 0.49 0.50 0.50 0.50 0.54 0.63 0.74 0.86 0.98
0.52 0.51 0.54 0.57 0.62 0.67 0.75 0.84 0.93 1.01 1.10 0.94 0.75 0.70 0.73 0.76 0.79 0.69 0.62 0.58 0.53 0.51 0.42 0.48 0.73 0.90 0.81 0.68 0.60 0.54 0.53 0.54 0.54 0.57 0.65 0.74 0.80 0.88
0.42 0.42 0.41 0.42 0.48 0.53 0.61 0.66 0.72 0.81 0.94 0.90 0.72 0.67 0.70 0.76 0.83 0.81 0.69 0.60 0.56 0.62 0.54 0.49 0.64 1.03 1.12 0.89 0.78 0.67 0.56 0.54 0.53 0.57 0.62 0.66 0.69 0.76
0.34 0.36 0.37 0.40 0.44 0.49 0.56 0.60 0.64 0.69 0.83 0.89 0.78 0.70 0.71 0.77 0.87 0.84 0.70 0.68 0.52 0.51 0.54 0.57 0.68 1.19 1.53 1.29 1.00 0.87 0.69 0.59 0.53 0.55 0.61 0.63 0.61 0.60
0.27 0.29 0.31 0.37 0.43 0.48 0.51 0.55 0.63 0.72 0.77 0.83 0.81 0.79 0.80 0.81 0.89 0.94 0.80 0.70 0.56 0.40 0.48 0.56 0.72 1.17 1.70 1.87 1.50 1.22 0.98 0.78 0.64 0.56 0.55 0.54 0.49 0.44
0.27 0.27 0.26 0.32 0.40 0.44 0.47 0.57 0.69 0.79 0.80 0.83 0.83 0.84 0.85 0.92 0.92 0.88 0.82 0.70 0.55 0.44 0.48 0.52 0.76 1.41 1.96 2.25 2.09 1.57 1.16 0.92 0.74 0.62 0.56 0.50 0.45 0.39
0.34 0.31 0.25 0.24 0.28 0.33 0.41 0.49 0.58 0.71 0.81 0.87 0.88 0.85 0.83 0.87 0.88 0.86 0.86 0.83 0.68 0.48 0.49 0.56 0.89 1.69 2.27 2.53 2.42 1.74 1.19 0.96 0.85 0.75 0.68 0.60 0.52 0.44
0.37 0.35 0.28 0.23 0.28 0.33 0.35 0.38 0.46 0.58 0.75 0.88 0.92 0.82 0.84 0.91 0.97 0.96 0.86 0.86 0.82 0.57 0.57 0.72 1.05 1.66 2.18 2.60 2.51 1.86 1.36 1.09 0.98 0.89 0.81 0.71 0.59 0.48
0.30 0.30 0.35 0.39 0.32 0.29 0.31 0.43 0.58 0.67 0.69 0.69 0.81 0.82 0.83 0.82 0.79 0.80 0.78 0.83 0.77 0.58 0.61 0.84 1.09 1.56 1.98 2.42 2.42 1.85 1.41 1.19 1.07 0.95 0.83 0.72 0.61 0.52
0.26 0.25 0.28 0.36 0.31 0.34 0.44 0.63 0.83 0.98 0.84 0.76 0.79 0.89 0.91 0.80 0.64 0.64 0.84 0.94 0.79 0.56 0.57 0.78 1.01 1.28 1.63 1.99 2.01 1.74 1.42 1.23 1.08 0.94 0.80 0.68 0.60 0.56
0.31 0.30 0.31 0.33 0.33 0.44 0.55 0.78 0.99 1.10 0.93 0.85 0.94 1.06 1.01 0.92 0.83 0.85 0.97 0.94 0.81 0.72 0.61 0.72 0.88 1.03 1.42 1.62 1.52 1.39 1.34 1.31 1.18 1.04 0.88 0.70 0.55 0.51
0.33 0.38 0.40 0.40 0.38 0.48 0.65 0.82 1.03 1.07 1.00 0.96 0.93 0.94 0.93 0.92 0.87 0.88 0.85 0.80 0.78 0.77 0.66 0.74 0.92 1.03 1.25 1.41 1.38 1.31 1.20 1.20 1.19 1.23 1.17 0.91 0.64 0.52
0.42 0.45 0.44 0.42 0.44 0.60 0.73 0.91 1.14 1.24 1.10 0.94 0.81 0.76 0.74 0.77 0.75 0.66 0.60 0.58 0.63 0.66 0.63 0.71 0.95 1.11 1.10 1.11 1.27 1.24 1.20 1.22 1.19 1.22 1.26 1.12 0.90 0.77
0.38 0.49 0.49 0.44 0.60 0.88 1.03 1.14 1.31 1.37 1.15 0.88 0.75 0.68 0.62 0.59 0.57 0.57 0.52 0.49 0.47 0.46 0.44 0.54 0.78 0.93 0.96 0.98 1.09 1.10 1.22 1.42 1.35 1.33 1.25 1.14 1.03 0.89
0.30 0.45 0.57 0.62 0.78 1.07 1.27 1.37 1.42 1.32 1.07 0.86 0.73 0.65 0.56 0.52 0.53 0.50 0.49 0.45 0.47 0.53 0.49 0.50 0.62 0.75 0.88 0.88 0.93 1.02 1.13 1.54 1.59 1.38 1.26 1.23 1.13 1.00
0.26 0.41 0.60 0.71 0.91 1.12 1.24 1.26 1.21 1.11 1.01 0.84 0.71 0.64 0.60 0.55 0.54 0.48 0.45 0.40 0.45 0.51 0.53 0.54 0.59 0.62 0.68 0.72 0.85 0.98 1.12 1.36 1.43 1.22 1.06 1.17 1.23 1.09
0.31 0.50 0.67 0.77 0.92 1.04 1.11 1.09 1.01 0.92 0.83 0.74 0.68 0.62 0.58 0.55 0.53 0.45 0.39 0.38 0.44 0.45 0.44 0.44 0.41 0.41 0.49 0.66 0.87 0.94 0.97 1.14 1.16 1.00 0.80 0.89 1.15 1.15
0.36 0.56 0.72 0.84 0.93 0.97 0.97 0.93 0.88 0.82 0.72 0.65 0.61 0.57 0.51 0.47 0.45 0.40 0.35 0.35 0.36 0.35 0.33 0.30 0.25 0.21 0.32 0.68 0.96 1.01 0.91 0.90 0.88 0.83 0.76 0.74 0.97 1.10
0.42 0.57 0.69 0.75 0.81 0.85 0.83 0.82 0.78 0.70 0.62 0.58 0.57 0.54 0.46 0.40 0.37 0.34 0.31 0.28 0.27 0.25 0.22 0.21 0.20 0.20 0.26 0.49 0.88 1.08 0.93 0.70 0.60 0.63 0.66 0.70 0.84 0.91
0.43 0.53 0.60 0.64 0.68 0.71 0.69 0.65 0.63 0.60 0.53 0.48 0.49 0.49 0.46 0.39 0.33 0.26 0.22 0.17 0.18 0.19 0.21 0.25 0.25 0.20 0.18 0.23 0.50 0.77 0.81 0.74 0.56 0.47 0.46 0.50 0.53 0.50
0.40 0.48 0.51 0.50 0.51 0.53 0.50 0.45 0.45 0.45 0.43 0.42 0.42 0.41 0.39 0.33 0.26 0.21 0.18 0.15 0.15 0.14 0.15 0.18 0.17 0.13 0.13 0.18 0.35 0.52 0.58 0.52 0.46 0.42 0.41 0.36 0.31 0.39
0.35 0.38 0.41 0.42 0.37 0.35 0.35 0.34 0.35 0.36 0.36 0.37 0.35 0.34 0.31 0.26 0.20 0.15 0.12 0.10 0.09 0.08 0.09 0.11 0.11 0.10 0.10 0.13 0.19 0.27 0.30 0.28 0.25 0.28 0.40 0.46 0.42 0.49